Location: Bjelajci
(45.0103°N, 16.1758°E)
Time: 19:51:26
(UTC+00:00)

Cosmos 2082 Rocket - Pass Details

Date: 14 July 2020
Orbit: 833 x 853 km, 71.0° (Epoch: 05 August)

Event Time Altitude Azimuth Distance (km) Brightness Sun altitude
Exits shadow 00:40:46 22° 156° (SSE) 1,782 3.5 -19.6°
Maximum altitude 00:43:42 36° 106° (ESE) 1,321 3.3 -19.4°
Drops below altitude 10° 00:48:51 10° 41° (NE) 2,488 5.8 -19.0°
Sets 00:51:29 0° 33° (NNE) 3,426 7.0 -18.8°
